Weather Roundup
Issued by NWS

Home | Current Version | Previous Version | Graphics & Text | Print | Product List | Glossary Off
Versions: 1 2 3 4 5 6 7 8 9 10 11 12 13 14 15 16 17 18 19 20 21 22 23 24 25 26 27 28 29 30 31 32 33 34 35 36 37 38 39 40 41 42 43 44 45 46 47 48 49 50

000
NZUS93 KARX 281810
HRRWXR

CURRENT HOURLY OBSERVATIONS ACROSS
MUCH OF THE UPPER MISSISSIPPI VALLEY
NATIONAL WEATHER SERVICE LA CROSSE WI
100 PM CDT SAT MAY 28 2016


...SOUTHEAST MINNESOTA...


CITY           SKY/WX    TMP DP  RH WIND       PRES   REMARKS
ROCHESTER      CLOUDY    70  64  81 S17       29.78S
ROCHESTER/MAYO CLOUDY    69  65  88 S12G18    29.78S
WINONA         CLOUDY    70  64  83 SW3       29.78S
AUSTIN         MOSUNNY   66  63  88 S3        29.77F
ALBERT LEA     CLOUDY    66  66 100 SE8       29.76F
DODGE CENTER   MOSUNNY   72  64  78 S15       29.77F
PRESTON        PTSUNNY   69  61  75 S13       29.80S
OWATONNA       CLOUDY    72  63  73 SE8       29.76S
FARIBAULT      CLOUDY    72  63  73 S5        29.76F
$$

...ELSEWHERE IN MINNESOTA...


CITY           SKY/WX    TMP DP  RH WIND       PRES   REMARKS
MINNEAPOLIS    CLOUDY    67  60  78 NW7       29.77S
INTNL FALLS    FOG       59  57  93 NE9       29.82F VSB 1
DULUTH         CLOUDY    53  51  93 N5        29.78F FOG
RED WING       LGT RAIN  68  63  83 S6        29.76R
REDWOOD FALLS  LGT RAIN  60  58  92 NE5       29.77F
MANKATO        CLOUDY    64  61  88 NW6       29.76R
WORTHINGTON    CLOUDY    65  60  84 N7        29.78S
FAIRMONT       CLOUDY    64  61  88 CALM      29.76F
$$

...SOUTHWEST WISCONSIN...


CITY           SKY/WX    TMP DP  RH WIND       PRES   REMARKS
LA CROSSE      CLOUDY    75  64  68 S12       29.78S
PRAIRIE DU CHI MOSUNNY   76  59  56 S13       29.80F
BOSCOBEL       PTSUNNY   77  61  57 SW13G18   29.82S
LONE ROCK      PTSUNNY   78  63  59 SW14G25   29.83S
PLATTEVILLE    PTSUNNY   77  66  70 S16       29.84S
FORT MC COY    PTSUNNY   74  64  69 SW10G20   29.80S
MAUSTON-NEW LI MOCLDY    74  64  69 S14G23    29.80S
VIROQUA        MOCLDY    74  62  68 SW16      29.82S
WIS DELLS      PTSUNNY   76  62  61 SW13G23   29.82S
$$

...ELSEWHERE IN WISCONSIN...


CITY           SKY/WX    TMP DP  RH WIND       PRES   REMARKS
MILWAUKEE      CLOUDY    77  64  64 S18G26    29.88S
MADISON        PTSUNNY   79  64  60 S21G26    29.83S
GREEN BAY      PTSUNNY   76  65  68 S22G31    29.81F
EAU CLAIRE     CLOUDY    71  63  75 SW7       29.75S
BLACK RVR FLS  MOCLDY    73  70  91 SW8       29.78R
MEDFORD        CLOUDY    68  68  98 S5        29.75F
WAUSAU         CLOUDY    75  65  70 S14G26    29.76R
WIS RAPIDS     PTSUNNY   77  63  61 SW16G25   29.80S
MARSHFIELD     PTSUNNY   74  66  76 SW14      29.77R
RICE LAKE      CLOUDY    67  62  81 W3        29.78S
$$

...NORTHEAST IOWA...


CITY           SKY/WX    TMP DP  RH WIND       PRES   REMARKS
WATERLOO       PTSUNNY   75  61  61 S10       29.78F
DUBUQUE        MOSUNNY   76  64  66 S15       29.83F
DECORAH        MOSUNNY   73  64  73 SW8G16    29.79F
MASON CITY     PTSUNNY   71  65  81 S14       29.79S
CHARLES CITY   CLOUDY    70  66  88 SW9       29.80S
OELWEIN        MOSUNNY   73  64  73 S15       29.81F
$$

...ELSEWHERE IN IOWA...


CITY           SKY/WX    TMP DP  RH WIND       PRES   REMARKS
DES MOINES     HVY RAIN  66  61  84 SW12      29.79S
IOWA CITY      MOSUNNY   79  65  62 S17G23    29.82F
FORT DODGE     CLOUDY    72  61  68 SW10      29.77S
MARSHALLTOWN   CLOUDY    71  63  75 S8        29.78S
CEDAR RAPIDS   MOSUNNY   77  66  68 S13G23    29.80F
$$

...NORTHERN ILLINOIS...


CITY           SKY/WX    TMP DP  RH WIND       PRES   REMARKS
CHICAGO-OHARE  CLOUDY    75  65  70 SW16G22   29.92S
CHICAGO-MIDWAY CLOUDY    76  63  64 S18G25    29.93S
MOLINE         MOSUNNY   81  65  58 S14       29.84S
ROCKFORD       PTSUNNY   79  63  57 SW17G26   29.90S
PEORIA         MOSUNNY   80  64  58 S18G25    29.90F
$$

NOTE: "FAIR" INDICATES FEW OR NO CLOUDS BELOW 12,000 FEET WITH NO
SIGNIFICANT WEATHER AND/OR OBSTRUCTIONS TO VISIBILITY. WIND
SPEEDS ARE IN MILES-PER-HOUR.




USA.gov is the U.S. government's official web portal to all federal, state and local government web resources and services.